This demonstration page uses our WeatherBlox Daily Observations layout. Learn more.

Left ArrowRight Arrow

39.08367, -84.50855

Hourly Observations for December 16, 2016

Temp ( °F °C ) Dew Point ( °F °C ) Humidity (%) Winds ( mph kmh ) Pressure ( in mb ) Visibility ( mi km ) Precip ( " mm )
12:53 am 00:53 Clear 14 -10 0 -17.8 53 53 NE 6 9 30.48 1032 10 16 0.00 0.00
1:53 am 01:53 Mostly Cloudy 15 -9.4 -1 -18.3 49 49 E 5 7 30.46 1031 10 16 0.00 0.00
2:53 am 02:53 Mostly Cloudy 15 -9.4 0 -17.8 51 51 NNE 3 6 30.47 1032 10 16 0.00 0.00
3:53 am 03:53 Cloudy 15 -9.4 -1 -18.3 49 49 ENE 3 6 30.45 1031 10 16 0.00 0.00
4:53 am 04:53 Cloudy 16 -8.9 1 -17.2 51 51 Calm 30.46 1032 10 16 0.00 0.00
5:53 am 05:53 Cloudy 16 -8.9 1 -17.2 51 51 ESE 3 6 30.44 1031 10 16 0.00 0.00
6:53 am 06:53 Cloudy 17 -8.3 0 -17.8 47 47 SE 3 6 30.44 1031 10 16 0.00 0.00
7:53 am 07:53 Cloudy 17 -8.3 3 -16.1 54 54 Calm 30.43 1031 10 16 0.00 0.00
8:53 am 08:53 Cloudy 18 -7.8 2 -16.7 49 49 ESE 7 11 30.40 1030 10 16 0.00 0.00
9:53 am 09:53 Cloudy 19 -7.2 -1 -18.3 41 41 VRB 5 7 30.40 1029 10 16 0.00 0.00
10:53 am 10:53 Cloudy 21 -6.1 0 -17.8 39 39 SE 7 11 30.37 1029 10 16 0.00 0.00
11:53 am 11:53 Cloudy 22 -5.6 2 -16.7 42 42 SE 12 19 30.32 1027 10 16 0.00 0.00
12:53 pm 12:53 Cloudy 23 -5 2 -16.7 40 40 ESE 9 15 30.27 1025 10 16 0.00 0.00
1:53 pm 13:53 Mostly Sunny 25 -3.9 3 -16.1 39 39 SE 7 11 30.22 1023 10 16 0.00 0.00
2:53 pm 14:53 Sunny 26 -3.3 3 -16.1 37 37 SE 9 15 30.18 1022 10 16 0.00 0.00
3:53 pm 15:53 Cloudy 27 -2.8 3 -16.1 35 35 SSE 8 13 30.15 1021 10 16 0.00 0.00
4:53 pm 16:53 Mostly Cloudy 28 -2.2 3 -16.1 34 34 SE 6 9 30.11 1020 10 16 0.00 0.00
5:53 pm 17:53 Partly Cloudy 28 -2.2 5 -15 37 37 Calm 30.08 1019 10 16 0.00 0.00
6:53 pm 18:53 Partly Cloudy 28 -2.2 6 -14.4 39 39 SE 6 9 30.05 1018 10 16 0.00 0.00
7:53 pm 19:53 Cloudy 30 -1.1 7 -13.9 38 38 Calm 30.01 1016 10 16 0.00 0.00
8:53 pm 20:53 Cloudy 31 -0.6 9 -12.8 40 40 Calm 29.96 1015 10 16 0.00 0.00
9:53 pm 21:53 Cloudy 33 0.6 10 -12.2 38 38 S 7 11 29.92 1013 10 16 0.00 0.00
10:08 pm 22:08 Cloudy 34 1 10 -12 38 38 SSE 6 9 29.91 1013 10 16 0.00 0.00
10:53 pm 22:53 Cloudy 34 1.1 17 -8.3 50 50 S 9 15 29.85 1011 10 16 0.00 0.03
11:33 pm 23:33 Cloudy with Light Rain 32 0 25 -3.9 75 75 SE 5 7 29.83 1010 7 11 0.01 0.25
11:53 pm 23:53 Cloudy with Light Wintry Mix 33 0.6 27 -2.8 78 78 S 8 13 29.80 1009 4 6 0.03 0.76

Powered by AerisWeather